K3TXT-1 Edgewater MD US current weather conditions

sailwx.info

Wind from 359 at 1 knots gusting 5

Air temperature 20.0° C
Dewpoint 12.7° C

Last reported at 2020-Sep-30 17:03 UTC.
Time now 2020-Sep-30 17:48 UTC

Location: N 38°57' W 076°33'.
View on Google Maps.

See reports from other nearby stations

  
Tides and Currents Weather Stations Pressure Air Temp Water Temp Dewpoint Dewpoint Depression Visibility Wind Speed Wind Dir Waves Ship Positions
date/time (UTC)wind fromknots sea level pressurealtimeterstation pressurevisibilityair tempwater tempwave heightnotes
2020-Sep-30 17:03 359 1 gusting 5 20.0
2020-Sep-30 16:58 286 1 gusting 6 20.0
2020-Sep-30 16:53 186 3 gusting 13 20.0
2020-Sep-30 16:48 270 3 gusting 13 20.0
2020-Sep-30 16:43 237 1 gusting 6 20.0
2020-Sep-30 16:38 272 1 gusting 6 20.0
2020-Sep-30 16:33 359 1 gusting 7 20.0
2020-Sep-30 16:28 254 2 gusting 9 20.0
2020-Sep-30 16:23 359 2 gusting 9 19.4
2020-Sep-30 16:18 359 1 gusting 7 19.4
2020-Sep-30 16:13 359 2 gusting 10 19.4
2020-Sep-30 16:08 288 2 gusting 10 18.9
2020-Sep-30 16:03 359 2 gusting 11 18.9
2020-Sep-30 15:58 359 3 gusting 11 18.3
2020-Sep-30 15:53 245 2 gusting 8 18.3
2020-Sep-30 15:48 283 2 gusting 6 18.3
2020-Sep-30 15:43 290 2 gusting 7 18.3
2020-Sep-30 15:38 359 2 gusting 7 18.3
2020-Sep-30 15:33 215 1 gusting 7 18.3
2020-Sep-30 15:28 275 1 gusting 7 17.8
2020-Sep-30 15:23 306 1 gusting 7 17.8
2020-Sep-30 15:18 031 2 gusting 13 17.8
2020-Sep-30 15:13 317 3 gusting 13 17.8
2020-Sep-30 15:08 239 2 gusting 9 17.2
2020-Sep-30 15:03 291 1 gusting 6 17.2
2020-Sep-30 14:58 359 2 gusting 6 17.2
2020-Sep-30 14:53 270 1 gusting 6 17.2
2020-Sep-30 14:48 259 2 gusting 9 16.7
2020-Sep-30 14:43 314 3 gusting 9 16.7
2020-Sep-30 14:38 359 3 gusting 10 16.7
2020-Sep-30 14:33 293 3 gusting 10 16.7
2020-Sep-30 14:28 229 2 gusting 10 16.1
2020-Sep-30 14:23 298 1 gusting 10 16.1
2020-Sep-30 14:18 273 2 gusting 7 16.1
2020-Sep-30 14:13 359 3 gusting 7 15.6
2020-Sep-30 14:08 280 2 gusting 6 15.6
2020-Sep-30 14:03 295 2 gusting 10 15.6
2020-Sep-30 13:58 262 3 gusting 10 15.0
2020-Sep-30 13:53 263 2 gusting 7 15.0
2020-Sep-30 13:48 262 2 gusting 8 15.0
2020-Sep-30 13:43 239 2 gusting 8 15.0
2020-Sep-30 13:38 256 1 gusting 6 14.4
2020-Sep-30 13:33 245 1 gusting 7 14.4
2020-Sep-30 13:28 266 2 gusting 7 14.4
2020-Sep-30 13:23 359 2 gusting 6 14.4
2020-Sep-30 13:18 241 2 gusting 6 14.4
2020-Sep-30 13:13 239 1 gusting 8 13.9
2020-Sep-30 13:08 260 0 gusting 8 13.9
2020-Sep-30 13:03 281 0 gusting 4 13.9
2020-Sep-30 12:58 293 2 gusting 6 13.9
2020-Sep-30 12:53 278 2 gusting 7 13.9
2020-Sep-30 12:48 235 2 gusting 7 13.9
2020-Sep-30 12:43 260 2 gusting 8 13.3
2020-Sep-30 12:38 243 2 gusting 8 13.3
2020-Sep-30 12:33 359 2 gusting 7 13.3
2020-Sep-30 12:28 239 1 gusting 6 13.3
2020-Sep-30 12:23 359 1 gusting 4 13.3
2020-Sep-30 12:18 359 1 gusting 6 13.3
2020-Sep-30 12:13 247 2 gusting 6 13.3
2020-Sep-30 12:08 228 2 gusting 5 13.3
2020-Sep-30 12:03 242 1 gusting 5 12.8
2020-Sep-30 11:58 256 1 gusting 4 12.8
2020-Sep-30 11:53 237 1 gusting 6 12.8
2020-Sep-30 11:48 252 1 gusting 6 13.3
2020-Sep-30 11:43 252 1 gusting 5 13.3
2020-Sep-30 11:38 249 1 gusting 5 13.3
2020-Sep-30 11:33 227 2 gusting 5 13.3
2020-Sep-30 11:28 251 2 gusting 6 13.3
2020-Sep-30 11:23 226 1 gusting 6 13.3
2020-Sep-30 11:18 359 1 gusting 5 13.3
2020-Sep-30 11:13 359 1 gusting 5 13.3
2020-Sep-30 11:08 245 1 gusting 5 13.3
2020-Sep-30 11:03 263 1 gusting 5 13.3
2020-Sep-30 10:58 255 1 gusting 4 13.3
2020-Sep-30 10:53 252 2 gusting 6 13.3
2020-Sep-30 10:48 249 1 gusting 6 13.3
2020-Sep-30 10:43 251 1 gusting 5 13.3
2020-Sep-30 10:38 237 0 gusting 4 13.3
2020-Sep-30 10:33 271 0 gusting 6 13.3
2020-Sep-30 10:28 255 0 gusting 6 13.3
2020-Sep-30 10:23 222 0 gusting 3 13.3
2020-Sep-30 10:18 224 0 gusting 4 13.3
2020-Sep-30 10:13 250 1 gusting 6 13.3
2020-Sep-30 10:08 271 1 gusting 6 13.3
2020-Sep-30 10:03 359 0 gusting 5 13.3
2020-Sep-30 09:58 359 1 gusting 5 13.3
2020-Sep-30 09:53 256 1 gusting 5 13.3
2020-Sep-30 09:48 359 1 gusting 4 13.3
2020-Sep-30 09:43 268 1 gusting 7 13.3
2020-Sep-30 09:38 237 1 gusting 7 13.3
2020-Sep-30 09:33 359 1 gusting 5 13.3
2020-Sep-30 09:28 300 1 gusting 5 13.3
2020-Sep-30 09:23 359 1 gusting 6 13.3
2020-Sep-30 09:18 271 1 gusting 6 13.3
2020-Sep-30 09:13 359 1 gusting 4 13.3
2020-Sep-30 09:08 359 1 gusting 7 13.3
2020-Sep-30 09:03 359 1 gusting 7 13.3
2020-Sep-30 08:58 253 0 gusting 3 13.3
2020-Sep-30 08:53 343 1 gusting 10 13.3
2020-Sep-30 08:48 285 2 gusting 10 13.3
2020-Sep-30 08:43 242 2 gusting 5 13.3
2020-Sep-30 08:38 276 2 gusting 9 13.3
2020-Sep-30 08:33 278 3 gusting 10 13.3
2020-Sep-30 08:28 309 3 gusting 10 13.3
2020-Sep-30 08:23 359 3 gusting 8 13.9
2020-Sep-30 08:18 261 2 gusting 9 13.9
2020-Sep-30 08:13 359 2 gusting 9 13.9
2020-Sep-30 08:08 244 2 gusting 9 13.9
2020-Sep-30 08:03 246 2 gusting 9 13.9
2020-Sep-30 07:58 287 2 gusting 9 13.9
2020-Sep-30 07:53 297 1 gusting 6 13.9
2020-Sep-30 07:48 244 1 gusting 6 13.9
2020-Sep-30 07:43 278 1 gusting 4 13.9
2020-Sep-30 07:38 301 1 gusting 7 13.9
2020-Sep-30 07:33 265 2 gusting 7 13.9
2020-Sep-30 07:28 236 2 gusting 7 13.9
2020-Sep-30 07:23 359 1 gusting 6 13.9
2020-Sep-30 07:18 262 1 gusting 6 13.9
2020-Sep-30 07:13 277 1 gusting 6 13.9
2020-Sep-30 07:08 253 1 gusting 6 13.9
2020-Sep-30 07:03 257 0 gusting 4 14.4
2020-Sep-30 06:58 251 0 gusting 3 14.4
2020-Sep-30 06:53 359 0 gusting 3 13.9
2020-Sep-30 06:48 279 0 gusting 2 13.9
2020-Sep-30 06:43 276 0 gusting 2 13.9
2020-Sep-30 06:38 321 0 gusting 2 13.9
2020-Sep-30 06:33 004 0 gusting 2 13.9
2020-Sep-30 06:28 004 0 gusting 4 13.9
2020-Sep-30 06:23 359 0 gusting 4 13.9
2020-Sep-30 06:18 062 1 gusting 6 13.9
2020-Sep-30 06:13 009 1 gusting 6 13.9
2020-Sep-30 06:08 064 2 gusting 5 13.9
2020-Sep-30 06:03 044 2 gusting 4 13.9
2020-Sep-30 05:58 034 1 gusting 4 13.9
2020-Sep-30 05:53 023 1 gusting 4 13.9
2020-Sep-30 05:48 359 2 gusting 6 13.9
2020-Sep-30 05:43 011 2 gusting 6 13.9
2020-Sep-30 05:38 342 1 gusting 6 13.9
2020-Sep-30 05:33 347 1 gusting 5 13.9
2020-Sep-30 05:28 359 2 gusting 7 13.9
2020-Sep-30 05:23 335 2 gusting 7 13.9
2020-Sep-30 05:18 008 1 gusting 5 13.9
2020-Sep-30 05:13 359 2 gusting 6 13.9
2020-Sep-30 05:08 008 3 gusting 8 13.9
2020-Sep-30 05:03 359 3 gusting 8 13.9
2020-Sep-30 04:58 359 2 gusting 6 13.9
2020-Sep-30 04:53 038 3 gusting 8 13.9
2020-Sep-30 04:48 354 4 gusting 8 13.9
2020-Sep-30 04:43 337 3 gusting 9 13.9
2020-Sep-30 04:38 321 4 gusting 10 13.9
2020-Sep-30 04:33 337 4 gusting 10 13.9
2020-Sep-30 04:28 359 4 gusting 10 13.9
2020-Sep-30 04:23 13.9
2020-Sep-30 04:18 316 4 gusting 9 14.4
2020-Sep-30 04:13 359 4 gusting 19 14.4
2020-Sep-30 04:08 321 3 gusting 19 14.4
2020-Sep-30 04:03 010 2 gusting 7 14.4
2020-Sep-30 03:58 349 2 gusting 7 14.4
2020-Sep-30 03:53 359 2 gusting 7 14.4
2020-Sep-30 03:48 359 1 gusting 7 14.4
2020-Sep-30 03:43 354 1 gusting 7 14.4
2020-Sep-30 03:38 285 2 gusting 8 15.0
2020-Sep-30 03:33 193 3 gusting 10 15.0
2020-Sep-30 03:28 008 4 gusting 12 15.0
2020-Sep-30 03:23 329 3 gusting 12 15.0
2020-Sep-30 03:18 034 2 gusting 10 15.0
2020-Sep-30 03:13 326 2 gusting 10 15.0
2020-Sep-30 03:08 296 1 gusting 7 15.6
2020-Sep-30 03:03 359 1 gusting 7 15.6
2020-Sep-30 02:58 252 1 gusting 9 15.6
2020-Sep-30 02:53 359 2 gusting 9 15.6
2020-Sep-30 02:48 359 2 gusting 8 16.1
2020-Sep-30 02:43 359 2 gusting 8 16.1
2020-Sep-30 02:38 359 2 gusting 7 16.1
2020-Sep-30 02:33 359 1 gusting 6 16.7
2020-Sep-30 02:28 295 2 gusting 5 16.7
2020-Sep-30 02:23 359 3 gusting 6 16.7
2020-Sep-30 02:18 359 3 gusting 7 16.7
2020-Sep-30 02:13 359 3 gusting 7 16.7
2020-Sep-30 02:08 359 3 gusting 10 16.7
2020-Sep-30 02:03 018 3 gusting 10 16.7
2020-Sep-30 01:58 004 3 gusting 9 16.7
2020-Sep-30 01:53 344 2 gusting 6 16.7
2020-Sep-30 01:48 322 2 gusting 9 16.7
2020-Sep-30 01:43 097 2 gusting 9 17.2
2020-Sep-30 01:38 359 3 gusting 7 17.2
2020-Sep-30 01:33 354 3 gusting 6 17.2
2020-Sep-30 01:28 354 3 gusting 7 17.2
2020-Sep-30 01:23 354 3 gusting 10 17.2
2020-Sep-30 01:18 025 3 gusting 10 17.8
2020-Sep-30 01:13 031 3 gusting 8 17.8
2020-Sep-30 01:08 359 1 gusting 8 17.8
2020-Sep-30 01:03 17.8
2020-Sep-30 00:58 276 3 gusting 8 17.8
2020-Sep-30 00:53 008 4 gusting 8 18.3
2020-Sep-30 00:48 022 3 gusting 8 18.3
2020-Sep-30 00:43 341 2 gusting 8 18.3
2020-Sep-30 00:38 070 3 gusting 9 18.9
2020-Sep-30 00:33 359 3 gusting 11 18.9
2020-Sep-30 00:28 354 3 gusting 11 19.4
2020-Sep-30 00:23 339 3 gusting 12 19.4
2020-Sep-30 00:18 335 2 gusting 12 20.0
2020-Sep-30 00:13 292 2 gusting 6 20.6
2020-Sep-30 00:08 305 1 gusting 6 20.6
2020-Sep-30 00:03 339 2 gusting 10 21.1
2020-Sep-29 23:58 004 1 gusting 10 22.2
2020-Sep-29 23:53 312 0 gusting 2 22.8
2020-Sep-29 23:48 247 22.8
2020-Sep-29 23:43 249 22.8
2020-Sep-29 23:38 249 1 gusting 4 23.3
2020-Sep-29 23:33 250 1 gusting 6 23.3
2020-Sep-29 23:28 256 1 gusting 6 23.3
2020-Sep-29 23:23 359 1 gusting 6 23.3
2020-Sep-29 23:18 174 1 gusting 6 23.3
2020-Sep-29 23:13 359 1 gusting 4 23.3
2020-Sep-29 23:08 208 1 gusting 7 23.3
2020-Sep-29 23:03 245 1 gusting 7 23.3
2020-Sep-29 22:58 259 1 gusting 6 23.3
2020-Sep-29 22:53 189 1 gusting 6 23.3
2020-Sep-29 22:48 359 1 gusting 5 23.3
2020-Sep-29 22:43 204 1 gusting 5 23.3
2020-Sep-29 22:38 195 1 gusting 5 23.3
2020-Sep-29 22:33 226 0 gusting 5 23.3
2020-Sep-29 22:28 148 0 gusting 5 23.3
2020-Sep-29 22:23 217 1 gusting 6 23.9
2020-Sep-29 22:18 170 1 gusting 6 23.9
2020-Sep-29 22:13 251 0 gusting 4 23.9
2020-Sep-29 22:08 268 0 gusting 3 23.9
2020-Sep-29 22:03 359 1 gusting 4 23.9
2020-Sep-29 21:58 359 1 gusting 6 24.4
2020-Sep-29 21:53 258 2 gusting 6 24.4
2020-Sep-29 21:48 204 1 gusting 6 24.4
2020-Sep-29 21:43 122 1 gusting 6 24.4
2020-Sep-29 21:38 169 1 gusting 5 24.4
2020-Sep-29 21:33 179 1 gusting 6 24.4
2020-Sep-29 21:28 359 2 gusting 8 24.4
2020-Sep-29 21:23 164 2 gusting 8 24.4
2020-Sep-29 21:18 154 1 gusting 8 24.4
2020-Sep-29 21:13 359 1 gusting 8 24.4
2020-Sep-29 21:08 058 0 gusting 6 24.4
2020-Sep-29 21:03 195 1 gusting 6 24.4
2020-Sep-29 20:58 359 1 gusting 6 24.4
2020-Sep-29 20:53 160 2 gusting 6 24.4
2020-Sep-29 20:48 195 2 gusting 6 25.0
2020-Sep-29 20:43 210 2 gusting 6 25.0
2020-Sep-29 20:38 089 2 gusting 8 25.0
2020-Sep-29 20:33 195 2 gusting 8 25.0
2020-Sep-29 20:28 359 1 gusting 7 25.0
2020-Sep-29 20:23 145 1 gusting 5 25.0
2020-Sep-29 20:18 359 1 gusting 6 25.0
2020-Sep-29 20:13 147 2 gusting 6 25.0
2020-Sep-29 20:08 359 2 gusting 5 25.6
2020-Sep-29 20:03 152 2 gusting 6 25.6
2020-Sep-29 19:58 359 2 gusting 6 25.6
2020-Sep-29 19:53 167 2 gusting 6 25.6
2020-Sep-29 19:48 170 1 gusting 4 25.6
2020-Sep-29 19:43 294 3 gusting 8 25.6
2020-Sep-29 19:38 217 3 gusting 8 25.6
2020-Sep-29 19:33 260 2 gusting 8 25.6
2020-Sep-29 19:28 198 1 gusting 6 25.6
2020-Sep-29 19:23 211 1 gusting 6 25.6
2020-Sep-29 19:18 183 2 gusting 10 25.6
2020-Sep-29 19:13 186 3 gusting 10 25.6
2020-Sep-29 19:08 126 2 gusting 7 25.6
2020-Sep-29 19:03 359 1 gusting 6 25.6
2020-Sep-29 18:58 130 2 gusting 5 25.6
2020-Sep-29 18:53 195 1 gusting 6 25.6
2020-Sep-29 18:48 185 0 gusting 6 25.6
2020-Sep-29 18:43 157 0 gusting 5 26.1
2020-Sep-29 18:38 136 0 gusting 3 25.6
2020-Sep-29 18:33 359 1 gusting 6 25.6
2020-Sep-29 18:28 235 1 gusting 6 25.6
2020-Sep-29 18:23 199 1 gusting 6 25.6
2020-Sep-29 18:18 179 1 gusting 6 25.6
2020-Sep-29 18:13 190 0 gusting 4 25.0
2020-Sep-29 18:08 198 1 gusting 6 25.0
2020-Sep-29 18:03 246 1 gusting 6 25.6
2020-Sep-29 17:58 359 1 gusting 5 25.6
2020-Sep-29 17:53 231 0 gusting 3 25.6
2020-Sep-29 17:48 181 0 gusting 3 25.6
2020-Sep-29 17:43 168 0 gusting 2 25.6
2020-Sep-29 17:38 204 1 gusting 4 25.6
2020-Sep-29 17:33 204 2 gusting 5 25.6
2020-Sep-29 17:28 359 1 gusting 5 26.1
2020-Sep-29 17:23 189 1 gusting 6 25.6
2020-Sep-29 17:18 201 1 gusting 6 25.6
2020-Sep-29 17:13 359 1 gusting 6 25.6
2020-Sep-29 17:08 359 1 gusting 6 25.0
2020-Sep-29 17:03 359 1 gusting 5 25.0
2020-Sep-29 16:58 359 1 gusting 6 24.4
2020-Sep-29 16:53 115 2 gusting 6 24.4
2020-Sep-29 16:48 240 1 gusting 6 24.4
2020-Sep-29 16:43 166 1 gusting 5 25.0
2020-Sep-29 16:38 185 2 gusting 6 25.0
2020-Sep-29 16:33 173 1 gusting 6 25.0
2020-Sep-29 16:28 174 1 gusting 6 25.6
2020-Sep-29 16:23 167 2 gusting 6 25.6
2020-Sep-29 16:18 359 1 gusting 6 25.6
2020-Sep-29 16:13 177 1 gusting 6 25.6
2020-Sep-29 16:08 137 2 gusting 6 25.6
2020-Sep-29 16:03 204 0 gusting 5 25.6
2020-Sep-29 15:58 201 1 gusting 4 25.6
2020-Sep-29 15:53 359 2 gusting 6 25.6
2020-Sep-29 15:48 176 3 gusting 7 25.6
2020-Sep-29 15:43 222 3 gusting 7 25.0
2020-Sep-29 15:38 250 4 gusting 8 25.0
2020-Sep-29 15:33 231 2 gusting 8 24.4
2020-Sep-29 15:28 213 1 gusting 7 24.4
2020-Sep-29 15:23 304 3 gusting 6 24.4
2020-Sep-29 15:18 228 2 gusting 6 24.4
2020-Sep-29 15:13 242 2 gusting 6 24.4
2020-Sep-29 15:08 293 2 gusting 6 24.4
2020-Sep-29 15:03 262 2 gusting 6 24.4
2020-Sep-29 14:58 229 1 gusting 6 24.4
2020-Sep-29 14:53 359 1 gusting 6 24.4
2020-Sep-29 14:48 220 2 gusting 6 23.9
2020-Sep-29 14:43 197 2 gusting 6 23.9
2020-Sep-29 14:38 241 2 gusting 7 23.9
2020-Sep-29 14:33 222 1 gusting 7 23.3
2020-Sep-29 14:28 218 1 gusting 4 23.3
2020-Sep-29 14:23 246 1 gusting 6 23.3
2020-Sep-29 14:18 156 2 gusting 6 23.3
2020-Sep-29 14:13 221 2 gusting 6 22.8
2020-Sep-29 14:08 177 2 gusting 8 22.8
2020-Sep-29 14:03 197 2 gusting 8 22.2
2020-Sep-29 13:58 163 2 gusting 6 22.2
2020-Sep-29 13:53 359 2 gusting 6 22.2
2020-Sep-29 13:48 359 2 gusting 5 22.2
2020-Sep-29 13:43 228 1 gusting 5 22.2
2020-Sep-29 13:38 173 2 gusting 6 21.7
2020-Sep-29 13:33 359 2 gusting 6 21.7
2020-Sep-29 13:28 166 1 gusting 5 21.7
2020-Sep-29 13:23 188 1 gusting 5 21.7
2020-Sep-29 13:18 204 0 gusting 3 21.7
2020-Sep-29 13:13 359 0 gusting 3 21.7
2020-Sep-29 13:08 226 0 gusting 3 21.7
2020-Sep-29 13:03 359 0 gusting 3 21.1
2020-Sep-29 12:58 216 0 gusting 3 21.1
2020-Sep-29 12:53 359 0 gusting 3 21.1
2020-Sep-29 12:48 216 0 gusting 3 21.1
2020-Sep-29 12:43 154 21.1
2020-Sep-29 12:38 147 0 gusting 5 21.1
2020-Sep-29 12:33 172 0 gusting 5 21.1
2020-Sep-29 12:28 183 0 gusting 3 21.1
2020-Sep-29 12:23 359 0 gusting 4 21.1
2020-Sep-29 12:18 193 0 gusting 4 21.1
2020-Sep-29 12:13 359 0 gusting 2 20.6
2020-Sep-29 12:08 359 20.6
2020-Sep-29 12:03 213 20.6
2020-Sep-29 11:58 206 0 gusting 2 20.6
2020-Sep-29 11:53 209 0 gusting 2 20.6
2020-Sep-29 11:48 212 20.6
2020-Sep-29 11:43 359 20.6
2020-Sep-29 11:38 359 20.6
2020-Sep-29 11:33 210 20.6
2020-Sep-29 11:28 359 20.6
2020-Sep-29 11:23 212 20.6
2020-Sep-29 11:18 210 20.6
2020-Sep-29 11:13 210 20.0
2020-Sep-29 11:08 359 20.0
2020-Sep-29 11:03 210 20.0
2020-Sep-29 10:58 359 20.0
2020-Sep-29 10:52 210 20.0
2020-Sep-29 10:48 213 20.0
2020-Sep-29 10:42 359 20.0
2020-Sep-29 10:38 209 20.0
2020-Sep-29 10:33 209 0 gusting 2 20.0
2020-Sep-29 10:27 164 0 gusting 2 20.0
2020-Sep-29 10:23 359 0 gusting 2 20.0
2020-Sep-29 10:18 215 20.0
2020-Sep-29 10:13 215 20.0
2020-Sep-29 10:08 359 20.0
2020-Sep-29 10:02 220 20.0
2020-Sep-29 09:58 221 20.0
2020-Sep-29 09:53 222 19.4
2020-Sep-29 09:48 221 19.4
2020-Sep-29 09:42 222 19.4
2020-Sep-29 09:37 359 19.4
2020-Sep-29 09:32 226 19.4
2020-Sep-29 09:28 226 19.4
2020-Sep-29 09:22 226 19.4
2020-Sep-29 09:18 359 19.4
2020-Sep-29 09:13 226 19.4
2020-Sep-29 09:07 226 19.4
2020-Sep-29 09:02 226 19.4
2020-Sep-29 08:57 226 19.4
2020-Sep-29 08:53 226 19.4
2020-Sep-29 08:47 359 19.4
2020-Sep-29 08:42 227 19.4
2020-Sep-29 08:37 227 20.0
2020-Sep-29 08:32 233 0 gusting 4 20.0
2020-Sep-29 08:27 168 0 gusting 4 19.4
2020-Sep-29 08:22 204 0 gusting 3 19.4
2020-Sep-29 08:17 166 19.4
2020-Sep-29 08:12 231 19.4
2020-Sep-29 08:07 220 19.4
2020-Sep-29 08:02 220 19.4
2020-Sep-29 07:57 359 20.0
2020-Sep-29 07:53 185 20.0
2020-Sep-29 07:47 185 20.0
2020-Sep-29 07:42 185 20.0
2020-Sep-29 07:37 237 0 gusting 2 20.0
2020-Sep-29 07:32 234 0 gusting 2 20.0
2020-Sep-29 07:27 243 20.0
2020-Sep-29 07:22 179 20.0
2020-Sep-29 07:17 184 20.0
2020-Sep-29 07:12 178 20.0
2020-Sep-29 07:07 170 0 gusting 4 20.6
2020-Sep-29 07:02 168 0 gusting 4 20.6
2020-Sep-29 06:57 178 0 gusting 3 20.0
2020-Sep-29 06:52 220 0 gusting 6 20.6
2020-Sep-29 06:47 224 0 gusting 6 20.6
2020-Sep-29 06:42 241 0 gusting 3 20.6
2020-Sep-29 06:37 247 0 gusting 3 20.6
2020-Sep-29 06:32 163 1 gusting 3 20.6
2020-Sep-29 06:28 224 0 gusting 3 20.6
2020-Sep-29 06:22 195 0 gusting 3 20.6
2020-Sep-29 06:17 359 0 gusting 2 20.6
2020-Sep-29 06:12 221 0 gusting 2 20.6
2020-Sep-29 06:07 169 0 gusting 2 20.6
2020-Sep-29 06:02 162 20.6
2020-Sep-29 05:57 246 20.6
2020-Sep-29 05:52 359 0 gusting 4 20.6
2020-Sep-29 05:47 170 0 gusting 4 20.6
2020-Sep-29 05:42 218 0 gusting 3 20.6
2020-Sep-29 05:37 221 0 gusting 4 20.6
2020-Sep-29 05:32 220 1 gusting 4 21.1
2020-Sep-29 05:27 222 1 gusting 4 21.1
2020-Sep-29 05:22 359 1 gusting 4 21.1
2020-Sep-29 05:17 253 1 gusting 4 21.1
2020-Sep-29 05:12 359 1 gusting 5 21.1
2020-Sep-29 05:07 180 0 gusting 5 21.1
2020-Sep-29 05:02 234 0 gusting 4 21.1
2020-Sep-29 04:57 166 0 gusting 4 21.1
2020-Sep-29 04:52 359 0 gusting 3 21.1
2020-Sep-29 04:47 244 1 gusting 4 21.1
2020-Sep-29 04:42 177 0 gusting 4 21.1
2020-Sep-29 04:37 227 0 gusting 3 21.1
2020-Sep-29 04:32 172 0 gusting 7 21.1
2020-Sep-29 04:27 176 1 gusting 7 21.1
2020-Sep-29 04:22 193 0 gusting 5 21.1
2020-Sep-29 04:17 359 0 gusting 3 21.1
2020-Sep-29 04:12 189 0 gusting 2 21.1
2020-Sep-29 04:07 224 0 gusting 4 21.1
2020-Sep-29 04:02 202 1 gusting 5 21.1
2020-Sep-29 03:57 188 1 gusting 5 21.1
2020-Sep-29 03:52 179 0 gusting 4 21.1
2020-Sep-29 03:47 359 0 gusting 5 21.1
2020-Sep-29 03:42 231 1 gusting 6 21.1
2020-Sep-29 03:37 213 1 gusting 6 21.1
2020-Sep-29 03:32 178 1 gusting 5 21.1
2020-Sep-29 03:27 187 1 gusting 6 21.1
2020-Sep-29 03:22 231 1 gusting 6 21.1
2020-Sep-29 03:17 359 0 gusting 5 21.1
2020-Sep-29 03:12 235 0 gusting 6 21.1
2020-Sep-29 03:07 193 1 gusting 6 21.1
2020-Sep-29 03:02 179 0 gusting 3 21.1
2020-Sep-29 02:57 359 0 gusting 5 21.1
2020-Sep-29 02:52 359 0 gusting 5 21.1
2020-Sep-29 02:47 220 0 gusting 3 21.1
2020-Sep-29 02:42 219 0 gusting 3 21.1
2020-Sep-29 02:37 149 0 gusting 5 21.1
2020-Sep-29 02:32 359 0 gusting 5 21.1
2020-Sep-29 02:27 180 21.1
2020-Sep-29 02:22 219 0 gusting 4 21.1
2020-Sep-29 02:17 359 1 gusting 5 21.7
2020-Sep-29 02:12 202 1 gusting 6 21.7
2020-Sep-29 02:07 136 2 gusting 6 21.7
2020-Sep-29 02:02 233 1 gusting 6 21.7
2020-Sep-29 01:57 225 1 gusting 7 21.7
2020-Sep-29 01:52 359 2 gusting 7 21.7
2020-Sep-29 01:47 176 2 gusting 6 21.7
2020-Sep-29 01:42 222 2 gusting 7 21.7
2020-Sep-29 01:37 181 2 gusting 7 21.7
2020-Sep-29 01:32 220 2 gusting 8 21.7
2020-Sep-29 01:27 164 3 gusting 8 21.7
2020-Sep-29 01:22 161 3 gusting 8 21.7
2020-Sep-29 01:17 152 3 gusting 9 21.7
2020-Sep-29 01:12 178 4 gusting 9 21.7
2020-Sep-29 01:08 194 3 gusting 9 21.7
2020-Sep-29 01:02 153 2 gusting 6 21.7
2020-Sep-29 00:57 164 3 gusting 7 21.7
2020-Sep-29 00:52 158 3 gusting 8 21.1
2020-Sep-29 00:47 154 2 gusting 12 21.1
2020-Sep-29 00:42 359 2 gusting 12 21.7
2020-Sep-29 00:37 164 1 gusting 6 21.7
2020-Sep-29 00:32 183 2 gusting 6 21.7
2020-Sep-29 00:27 181 2 gusting 6 21.7
2020-Sep-29 00:22 359 1 gusting 6 21.7
2020-Sep-29 00:17 359 1 gusting 6 21.7
2020-Sep-29 00:12 226 1 gusting 5 21.7
2020-Sep-29 00:07 177 1 gusting 6 21.7
2020-Sep-29 00:02 172 0 gusting 6 21.7
2020-Sep-28 23:57 359 0 gusting 3 21.7
2020-Sep-28 23:52 152 1 gusting 5 21.7
2020-Sep-28 23:47 170 1 gusting 6 21.7
2020-Sep-28 23:42 179 2 gusting 6 21.7
2020-Sep-28 23:37 155 2 gusting 8 21.7
2020-Sep-28 23:32 169 1 gusting 8 21.7
2020-Sep-28 23:27 173 1 gusting 6 21.7
2020-Sep-28 23:22 213 2 gusting 6 21.7
2020-Sep-28 23:17 193 1 gusting 5 21.7
2020-Sep-28 23:12 218 0 gusting 5 21.7
2020-Sep-28 23:07 164 0 gusting 5 21.7
2020-Sep-28 23:02 151 0 gusting 3 22.2
2020-Sep-28 22:57 168 0 gusting 4 22.2
2020-Sep-28 22:52 195 1 gusting 6 22.2
2020-Sep-28 22:47 359 1 gusting 6 22.2
2020-Sep-28 22:42 203 0 gusting 5 22.2
2020-Sep-28 22:37 197 0 gusting 5 22.2
2020-Sep-28 22:32 359 1 gusting 7 22.2
2020-Sep-28 22:27 143 2 gusting 7 22.2
2020-Sep-28 22:22 172 1 gusting 7 22.8
2020-Sep-28 22:17 226 1 gusting 10 22.8
2020-Sep-28 22:12 176 1 gusting 10 22.8
2020-Sep-28 22:07 359 0 gusting 4 23.3
2020-Sep-28 22:02 181 23.3
2020-Sep-28 21:57 186 23.3
2020-Sep-28 21:52 359 0 gusting 7 23.3
2020-Sep-28 21:47 188 2 gusting 7 23.9
2020-Sep-28 21:42 208 3 gusting 8 23.9
2020-Sep-28 21:37 201 3 gusting 8 23.9
2020-Sep-28 21:32 166 3 gusting 7 23.9
2020-Sep-28 21:27 359 2 gusting 7 24.4
2020-Sep-28 21:22 139 2 gusting 8 24.4
2020-Sep-28 21:17 359 3 gusting 11 24.4
2020-Sep-28 21:12 159 4 gusting 11 24.4
2020-Sep-28 21:07 177 3 gusting 11 25.0
2020-Sep-28 21:02 359 3 gusting 13 25.0
2020-Sep-28 20:57 173 4 gusting 13 25.0
2020-Sep-28 20:52 204 4 gusting 12 25.0
2020-Sep-28 20:47 165 4 gusting 12 25.0
2020-Sep-28 20:42 359 4 gusting 10 25.6
2020-Sep-28 20:37 202 4 gusting 11 25.6
2020-Sep-28 20:32 173 3 gusting 11 25.6
2020-Sep-28 20:27 177 4 gusting 10 25.6
2020-Sep-28 20:22 139 4 gusting 10 25.6
2020-Sep-28 20:17 185 4 gusting 13 25.6
2020-Sep-28 20:12 125 3 gusting 13 25.6
2020-Sep-28 20:07 156 3 gusting 10 25.6
2020-Sep-28 20:02 177 4 gusting 10 25.6
2020-Sep-28 19:57 160 4 gusting 9 26.1
2020-Sep-28 19:52 177 3 gusting 9 26.1
2020-Sep-28 19:47 095 3 gusting 8 26.1
2020-Sep-28 19:42 103 3 gusting 9 26.1
2020-Sep-28 19:37 181 4 gusting 9 26.1
2020-Sep-28 19:32 189 4 gusting 9 26.1
2020-Sep-28 19:27 164 4 gusting 9 26.1
2020-Sep-28 19:22 187 4 gusting 9 26.7
2020-Sep-28 19:17 196 3 gusting 7 26.7
2020-Sep-28 19:12 359 2 gusting 6 26.7
2020-Sep-28 19:07 160 3 gusting 8 26.1
2020-Sep-28 19:02 185 2 gusting 8 26.1
2020-Sep-28 18:57 208 1 gusting 6 26.1
2020-Sep-28 18:52 174 3 gusting 9 26.1
2020-Sep-28 18:47 164 3 gusting 9 26.1
2020-Sep-28 18:42 359 2 gusting 6 26.1
2020-Sep-28 18:37 151 2 gusting 6 26.1
2020-Sep-28 18:32 359 2 gusting 6 26.1
2020-Sep-28 18:27 193 2 gusting 8 26.1
2020-Sep-28 18:22 164 2 gusting 8 26.1
2020-Sep-28 18:17 185 2 gusting 8 26.1
2020-Sep-28 18:12 185 1 gusting 7 26.1
2020-Sep-28 18:07 359 2 gusting 6 26.1
2020-Sep-28 18:02 359 2 gusting 7 26.1
2020-Sep-28 17:57 359 2 gusting 7 26.1
2020-Sep-28 17:52 359 1 gusting 6 26.1
2020-Sep-28 17:47 243 0 gusting 3 25.6
2020-Sep-28 17:42 197 1 gusting 5 25.6
2020-Sep-28 17:37 193 2 gusting 6 25.6
2020-Sep-28 17:32 160 1 gusting 6 25.6
2020-Sep-28 17:27 359 0 gusting 4 25.6
2020-Sep-28 17:22 102 1 gusting 6 25.6
2020-Sep-28 17:17 206 1 gusting 6 25.6
2020-Sep-28 17:12 180 0 gusting 3 25.6
2020-Sep-28 17:07 168 0 gusting 3 25.6
2020-Sep-28 17:02 151 0 gusting 5 25.6